{"data":{"norad_id":63012,"epoch":"2026-09-21T21:38:41.479008Z","epoch_age_seconds":43925,"freshness":"FRESH","line1":"1 63012U 25032H   26264.90186897  .00159951  00000+0  12197-2 0  9993","line2":"2 63012  43.0000  92.5720 0002935 264.3557  95.6976 15.70963263 93070","mean_motion":15.70963263,"eccentricity":0.0002935,"inclination_deg":43,"raan_deg":92.572,"arg_perigee_deg":264.3557,"mean_anomaly_deg":95.6976,"bstar":0.0012197,"rev_number":9307,"period_min":91.663505692049,"perigee_km":354.16626476758,"apogee_km":358.11928699602,"semimajor_km":6734.2797758818,"source":"CELESTRAK","updated_at":"2026-09-22T09:00:49.740110Z"}}